This demonstration page uses our WeatherBlox Daily Observations layout. Learn more.

38.88101, -77.10428

Hourly Observations for June 16, 2019

Temp ( °F °C ) Dew Point ( °F °C ) Humidity (%) Winds ( mph kmh ) Pressure ( in mb ) Visibility ( mi km ) Precip ( " mm )
12:52 am 00:52 Mostly Cloudy 72 22.2 56 13.3 57 57 SSW 12 19 29.98 1015 10 16.0934 0 0
1:52 am 01:52 Mostly Cloudy 71 21.7 57 13.9 61 61 S 9 15 29.97 1015 10 16.0934 0 0
2:52 am 02:52 Cloudy 71 21.7 57 13.9 61 61 S 8 13 29.96 1014 10 16.0934 0 0
3:52 am 03:52 Cloudy 71 21.7 58 14.4 63 63 S 13 20 29.94 1014 10 16.0934 0 0
4:52 am 04:52 Mostly Cloudy 70 21.1 57 13.9 64 64 S 13 20 29.93 1014 10 16.0934 0 0
5:52 am 05:52 Mostly Cloudy 69 20.6 55 12.8 61 61 S 13 20 29.93 1013 10 16.0934 0 0
6:52 am 06:52 Mostly Cloudy 69 20.6 56 13.3 63 63 SSW 12 19 29.92 1013 10 16.0934 0 0
7:52 am 07:52 Mostly Cloudy 71 21.7 57 13.9 61 61 S 10 17 29.92 1013 10 16.0934 0 0
8:52 am 08:52 Mostly Cloudy 74 23.3 59 15 60 60 S 12 19 29.91 1013 10 16.0934 0 0
9:52 am 09:52 Mostly Cloudy 76 24.4 60 15.6 58 58 SSW 14 22 29.91 1013 10 16.0934 0 0
10:52 am 10:52 Mostly Cloudy 78 25.6 62 16.7 58 58 S 13 20 29.91 1013 10 16.0934 0 0
11:52 am 11:52 Mostly Cloudy 79 26.1 63 17.2 58 58 SSW 12 19 29.91 1013 10 16.0934 0 0
12:52 pm 12:52 Mostly Cloudy 81 27.2 66 18.9 61 61 S 9 15 29.9 1013 10 16.0934 0 0.0254
1:52 pm 13:52 Mostly Cloudy 84 28.9 66 18.9 55 55 S 17 28 29.87 1012 10 16.0934 0 0
2:52 pm 14:52 Mostly Cloudy 85 29.4 66 18.9 53 53 S 13 20 29.87 1012 10 16.0934 0 0
3:52 pm 15:52 Mostly Cloudy 83 28.3 68 20 61 61 S 12 19 29.86 1011 10 16.0934 0 0
4:52 pm 16:52 Mostly Cloudy 86 30 69 20.6 57 57 SSW 10 17 29.85 1011 10 16.0934 0 0
5:52 pm 17:52 Mostly Cloudy 86 30 68 20 55 55 S 13 20 29.84 1010 10 16.0934 0 0
6:52 pm 18:52 Mostly Cloudy 86 30 69 20.6 57 57 SW 13 20 29.83 1010 10 16.0934 0 0
7:52 pm 19:52 Mostly Cloudy 84 28.9 68 20 59 59 SSW 7 11 29.85 1011 10 16.0934 0 0
8:52 pm 20:52 Mostly Cloudy 82 27.8 69 20.6 65 65 SSW 10 17 29.85 1011 10 16.0934 0 0
9:52 pm 21:52 Mostly Cloudy 80 26.7 69 20.6 69 69 S 7 11 29.86 1011 10 16.0934 0 0
10:52 pm 22:52 Mostly Cloudy 82 27.8 68 20 63 63 SSW 9 15 29.88 1012 10 16.0934 0 0
11:52 pm 23:52 Mostly Cloudy 80 26.7 68 20 67 67 SW 8 13 29.89 1012 10 16.0934 0 0

Powered by AerisWeather